Weather Roundup
Issued by NWS Springfield, MO

Home | Current Version | Previous Version | Text Only | Print | Product List | Glossary On
Versions: 1 2 3 4 5 6 7 8 9 10 11 12 13 14 15 16 17 18 19 20 21 22 23 24 25 26 27 28 29 30 31 32 33 34 35 36 37 38 39 40 41 42 43 44 45 46 47 48 49 50
000
NZUS99 KSGF 271607
HRRSGF

HOURLY WEATHER
NATIONAL WEATHER SERVICE SPRINGFIELD MO
1100 AM CDT FRI MAY 27 2016

......SGF CWA......

CITY           SKY/WX    TMP DP  RH WIND       PRES   REMARKS
SPRINGFIELD    CLOUDY    73  66  78 S9        29.81R
JOPLIN         CLOUDY    73  66  78 S9        29.77F
WEST PLAINS    CLOUDY    74  68  81 S12       29.86F
ROLLA          CLOUDY    74  68  81 S14G24    29.82F
BRANSON        PTSUNNY   72  68  88 S6        29.83F

......SURROUNDING SGF CWA......

CITY           SKY/WX    TMP DP  RH WIND       PRES   REMARKS
CHANUTE        CLOUDY    70  63  78 SE10      29.72F
PARSONS        CLOUDY    70  64  81 MISG      29.71F
COFFEYVILLE    CLOUDY    72  65  78 SE14G21   29.69F
EMPORIA        CLOUDY    68  60  75 SE13G22   29.72F
GROVE OK       CLOUDY    73  68  83 S10       29.77F
ROGERS AR        N/A     72  65  78 S13       29.81F
SILOAM SPRINGS CLOUDY    70  59  68 S12       29.79F
HARRISON AR    CLOUDY    72  66  81 S6        29.84S
NEAR YELLVILLE CLOUDY   N/A N/A N/A S6        29.80S

......KANSAS AND MISSOURI......

CITY           SKY/WX    TMP DP  RH WIND       PRES   REMARKS
KANSAS CTY INT CLOUDY    68  63  84 S8        29.74S
DOWNTOWN KC    CLOUDY    72  63  73 SW13      29.73S
COLUMBIA       CLOUDY    74  68  81 S18       29.80F
SEDALIA        PTSUNNY   77  68  73 S17       29.77S
ST JOSEPH      CLOUDY    67  62  84 SW8       29.74R
ST LOUIS       CLOUDY    72  67  84 S18G25    29.87F
SPIRIT OF STL  CLOUDY    72  69  90 S8G18     29.85F
KIRKSVILLE     LGT RAIN  75  68  78 S13G26    29.77R
WICHITA        CLOUDY    69  64  84 SE13      29.69F
TOPEKA         MOSUNNY   67  60  78 S7        29.74F
OLATHE         CLOUDY    68  61  78 S10       29.75F

......TENNESSEE......

CITY           SKY/WX    TMP DP  RH WIND       PRES   REMARKS
MEMPHIS        CLOUDY    80  69  69 S13G21    29.94S
NASHVILLE      PTSUNNY   84  62  47 S12       30.05S

......ARKANSAS.......

CITY           SKY/WX    TMP DP  RH WIND       PRES   REMARKS
FAYETTEVILLE   PTSUNNY   70  67  90 S13       29.81F
FT SMITH       CLOUDY    76  66  71 S7        29.80R
LITTLE ROCK    PTSUNNY   78  71  79 MISG      29.87S

......OKLAHOMA.......

CITY           SKY/WX    TMP DP  RH WIND       PRES   REMARKS
TULSA          CLOUDY    74  66  76 SE22G28   29.65F
PONCA CITY     CLOUDY    73  64  73 SE10      29.67S
MCALESTER      CLOUDY    71  65  81 SE8G20    29.68F
OKLAHOMA CITY  CLOUDY    73  61  65 SW10      29.69R

......IOWA............

CITY           SKY/WX    TMP DP  RH WIND       PRES   REMARKS
DES MOINES     DRIZZLE   65  62  90 E5        29.74F FOG
QUAD CITIES    PTSUNNY   74  66  76 SE15G23   29.80S

......ILLINOIS........

CITY           SKY/WX    TMP DP  RH WIND       PRES   REMARKS
QUINCY         CLOUDY    72  67  84 S13G25    29.79F
CHICAGO        PTSUNNY   74  66  76 S10       29.90R




USA.gov is the U.S. government's official web portal to all federal, state and local government web resources and services.